Regional Weather Roundup
Issued by NWS Cleveland, OH

Home | Current Version | Previous Version | Text Only | Print | Product List | Glossary Off
Versions: 1 2 3 4 5 6 7 8 9 10 11 12 13 14 15 16 17 18 19 20 21 22 23 24 25 26 27 28 29 30 31 32 33 34 35 36 37 38 39 40 41 42 43 44 45 46 47 48 49 50

000
ASUS41 KCLE 011200
RWRCLE
OHIO REGIONAL WEATHER ROUNDUP
NATIONAL WEATHER SERVICE WILMINGTON, OH
700 AM EST SUN MAR 01 2015

NOTE: "FAIR" INDICATES FEW OR NO CLOUDS BELOW 12,000 FEET WITH NO
SIGNIFICANT WEATHER AND/OR OBSTRUCTIONS TO VISIBILITY.

OHZ001>008-015>018-024>027-034-035-043-044-011300-
   NORTHWEST OHIO

CITY           SKY/WX    TMP DP  RH WIND       PRES   REMARKS
DEFIANCE       LGT SNOW  18  14  84 CALM      30.40F FOG
FINDLAY        LGT SNOW  21  18  88 NE3       30.37F FOG
TOLEDO EXPRESS LGT SNOW  17  14  88 CALM      30.40F FOG
TOLEDO EXEC    LGT SNOW  18  14  84 CALM      30.41F FOG
LIMA           LGT SNOW  23  19  85 CALM      30.36S VSB 1
$$

OHZ009>014-019>023-028>033-038-089-011300-
   NORTHEAST OHIO

CITY           SKY/WX    TMP DP  RH WIND       PRES   REMARKS
CLE-HOPKINS    LGT SNOW  21  18  88 SE5       30.42F VSB 1   WCI  15
CLE-LAKEFRONT  LGT SNOW  22  19  89 SE3       30.40F FOG
CUY CO. ARPT   LGT SNOW  23  21  93 S6        30.40  FOG     WCI  16
LORAIN-ELYRIA  LGT SNOW  20  18  92 CALM      30.39F VSB 1
ASHTABULA      LGT SNOW  18  15  88 SE5       30.40F FOG     WCI  11
AKRON-CANTON   LGT SNOW  23  19  85 S7        30.36F VSB 3/4 WCI  15
WOOSTER        NOT AVBL
MANSFIELD      LGT SNOW  24  22  91 S8        30.35S FOG     WCI  15
YOUNGSTOWN     LGT SNOW  20  17  88 SE5       30.37F VSB 3/4 WCI  13
$$

OHZ042-051>053-060>062-070>072-077>081-011300-
  SOUTHWEST OHIO

CITY           SKY/WX    TMP DP  RH WIND       PRES   REMARKS
CINC-COVINGTON FRZ DRZL  29  24  82 S5        30.37F WCI  24
CINC-LUNKEN    CLOUDY    27  25  92 CALM      30.41F
HAMILTON       LGT SNOW  30  28  92 SE3       30.40F FOG
DAYTON         NOT AVBL
WRIGHT-PAT AFB NOT AVBL
DAYTON GENERAL LGT SNOW  30  28  92 S9        30.37S VSB 1   WCI  22
WILMINGTON     LGT SNOW  30  27  88 S6        30.38R FOG     WCI  24
$$

OHZ036-037-039>041-045>050-054>059-063>069-073>076-082>088-011300-
  CENTRAL AND SOUTHEAST OHIO

CITY           SKY/WX    TMP DP  RH WIND       PRES   REMARKS
COLUMBUS       LGT SNOW  25  23  92 N3        30.40R VSB 1
OSU AIRPORT    LGT SNOW  25  22  88 CALM      30.39S FOG
BOLTON FIELD   NOT AVBL
RICKENBACK AFB NOT AVBL
NEWARK         LGT SNOW  26  24  92 N3        30.38S FOG
MARION         LGT SNOW  24  22  91 S8        30.37F FOG     WCI  15
LANCASTER      FRZ RAIN  30  28  92 SE6       30.38S FOG     WCI  24
ZANESVILLE     FRZ RAIN  28  25  88 S6        30.39S FOG     WCI  22
NEW PHILLY     LGT SNOW  25  21  85 CALM      30.40S VSB 3/4
$$



USA.gov is the U.S. government's official web portal to all federal, state and local government web resources and services.